F1AGU-13 Weather Reports


time (UTC)temp
C
wind
direction
speed
KPH
gust
KPH
rain 1hr
cm
rain 24hr
cm
rain mn
cm
humidity
%
barometer
mb
20260505082515 10 315 3.2 6.4 0.00 5.28 2.26 93 1010.6
20260505081515 10 203 1.6 4.8 0.00 5.28 2.26 94 1010.6
20260505080515 10 23 3.2 6.4 0.00 5.28 2.26 96 1010.5
20260505075515 9 338 6.4 9.7 0.00 5.28 2.26 96 1010.3
20260505074515 9 338 6.4 11.3 0.00 5.28 2.26 96 1010.2
20260505073515 8 0 8.0 11.3 0.00 5.28 2.26 96 1010.2
20260505072515 8 338 3.2 6.4 0.00 5.28 2.26 96 1010.0
20260505071515 8 23 3.2 4.8 0.00 5.28 2.26 96 1010.0
20260505070515 8 0.0 3.2 0.00 5.28 2.26 96 1009.9
20260505065515 8 0.0 1.6 0.00 5.28 2.26 96 1009.8
20260505064515 8 90 1.6 3.2 0.00 5.28 2.26 97 1009.7
20260505063515 8 113 1.6 3.2 0.00 5.28 2.26 96 1009.7
20260505062517 8 315 3.2 4.8 0.00 5.28 2.26 96 1009.7
20260505061517 8 0.0 0.0 0.00 5.28 2.26 96 1009.7
20260505060517 7 23 1.6 4.8 0.00 5.28 2.26 96 1009.6
20260505055517 8 23 4.8 8.0 0.03 5.28 2.26 96 1009.6
20260505054517 8 0 1.6 4.8 0.03 5.28 2.26 96 1009.6
20260505053517 8 0.0 3.2 0.03 5.28 2.26 95 1009.5
20260505052517 8 225 4.8 11.3 0.03 5.28 2.26 94 1009.6
20260505051517 7 203 9.7 14.5 0.05 5.28 2.26 95 1009.6
20260505050517 7 225 11.3 17.7 0.08 5.28 2.26 95 1009.7
20260505041517 7 180 6.4 12.9 0.23 5.23 2.21 97 1010.7
20260505040517 7 225 9.7 20.9 0.23 5.21 2.18 97 1010.6
20260505035517 7 225 8.0 12.9 0.23 5.18 2.16 97 1010.7
20260505034517 7 203 4.8 8.0 0.28 5.13 2.11 97 1011.3
20260505033517 7 203 3.2 4.8 0.30 5.05 2.03 97 1011.4
20260505032517 7 0.0 0.0 0.33 5.03 2.01 97 1011.3
20260505031517 7 0.0 1.6 0.43 5.00 1.98 97 1011.3
20260505030517 7 0.0 3.2 0.43 4.95 1.93 97 1011.2
20260505025517 7 0.0 1.6 0.51 4.93 1.93 97 1011.2
20260505024517 7 0.0 3.2 0.48 4.85 1.83 97 1011.3
20260505023517 7 338 1.6 3.2 0.43 4.75 1.75 97 1011.6
20260505022517 7 0.0 1.6 0.43 4.67 1.65 97 1011.6
20260505021517 7 0.0 3.2 0.38 4.57 1.57 97 1011.6
20260505020517 7 0.0 0.0 0.38 4.52 1.50 97 1011.6
20260505015517 7 0.0 3.2 0.36 4.45 1.42 97 1011.5
20260505014517 7 0.0 3.2 0.33 4.37 1.37 96 1011.5
20260505013517 8 68 3.2 6.4 0.36 4.32 1.30 96 1011.3
20260505012517 8 338 4.8 8.0 0.43 4.27 1.24 96 1011.5
20260505011517 8 90 3.2 6.4 0.53 4.19 1.17 96 1011.7
20260505010517 8 23 1.6 8.0 0.66 4.14 1.12 96 1011.8
20260505005517 8 0 1.6 6.4 0.71 4.09 1.07 96 1012.0
20260505004517 8 315 3.2 6.4 0.76 4.04 1.02 95 1012.0
20260505003517 8 203 3.2 6.4 0.79 3.96 0.94 95 1012.3
20260505002517 8 225 3.2 6.4 0.69 3.81 0.79 95 1012.4
20260505001517 8 225 6.4 9.7 0.56 3.66 0.64 94 1012.5
20260505000517 8 225 9.7 12.9 0.43 3.48 0.46 93 1012.8
20260504235517 8 203 9.7 16.1 0.33 3.35 0.33 91 1012.9
20260504234517 8 180 9.7 17.7 0.25 3.30 0.25 91 1012.9
20260504233517 8 180 8.0 12.9 0.15 3.20 0.15 91 1013.0
20260504232516 8 203 8.0 12.9 0.13 3.15 0.13 91 1012.8
20260504231517 8 225 8.0 12.9 0.08 3.15 0.08 92 1012.6
20260504230516 9 225 6.4 11.3 0.05 3.10 0.05 90 1012.7
20260504225516 9 225 6.4 14.5 0.03 3.07 0.03 88 1012.7
20260504224516 9 225 4.8 11.3 0.00 3.05 0.00 87 1012.8
20260504223516 9 203 8.0 14.5 0.00 3.05 0.00 87 1013.0
20260504222516 10 293 3.2 6.4 0.00 3.05 0.00 87 1012.9
20260504221516 10 225 9.7 17.7 0.00 3.05 0.00 82 1012.8
20260504220516 10 225 14.5 25.7 0.00 3.05 0.00 80 1012.7
20260504215517 10 225 14.5 35.4 0.00 3.05 3.05 81 1012.7
20260504214517 10 225 19.3 32.2 0.00 3.05 3.05 81 1012.8
20260504213517 9 225 12.9 22.5 0.00 3.05 3.05 86 1013.1
20260504212517 9 225 14.5 24.1 0.00 3.05 3.05 87 1012.9
20260504211517 9 225 12.9 24.1 0.00 3.05 3.05 88 1013.3
20260504210517 8 225 14.5 29.0 0.00 3.05 3.05 92 1013.4
20260504205517 8 225 11.3 16.1 0.00 3.05 3.05 93 1013.5
20260504204517 8 225 8.0 12.9 0.00 3.05 3.05 92 1013.6
20260504203517 8 225 6.4 14.5 0.00 3.05 3.05 92 1013.7
20260504202517 8 203 6.4 12.9 0.05 3.05 3.05 91 1013.7
20260504201517 8 180 6.4 14.5 0.08 3.05 3.05 93 1013.8
20260504200517 8 158 8.0 12.9 0.08 3.05 3.05 95 1013.6
20260504195517 8 113 3.2 11.3 0.10 3.05 3.05 96 1013.9
20260504194517 8 203 8.0 14.5 0.15 3.05 3.05 96 1014.0
20260504193517 8 203 4.8 11.3 0.18 3.05 3.05 97 1014.3
20260504192517 8 180 3.2 6.4 0.15 3.02 3.02 96 1014.3
20260504191517 8 0.0 3.2 0.13 2.97 2.97 96 1014.4
20260504190517 8 0.0 3.2 0.15 2.97 2.97 96 1014.4
20260504185516 8 158 1.6 6.4 0.15 2.97 2.97 96 1014.6
20260504184517 8 0.0 0.0 0.08 2.90 2.90 96 1014.6
20260504183516 8 0.0 4.8 0.08 2.87 2.87 96 1014.4
20260504182516 8 315 1.6 4.8 0.08 2.87 2.87 96 1014.5
20260504181516 8 315 1.6 3.2 0.15 2.87 2.87 96 1014.5
20260504180516 8 0.0 3.2 0.15 2.84 2.84 95 1014.4
20260504175517 8 0.0 0.0 0.15 2.82 2.82 95 1014.5
20260504174516 9 338 1.6 4.8 0.18 2.82 2.82 94 1014.4
20260504173516 8 23 1.6 3.2 0.18 2.79 2.79 93 1014.5
20260504172516 9 135 1.6 8.0 0.15 2.77 2.77 93 1014.4
20260504171516 9 203 1.6 4.8 0.10 2.72 2.72 93 1014.6
20260504170516 9 225 8.0 11.3 0.08 2.69 2.69 92 1014.8
20260504150516 9 225 4.8 12.9 0.18 2.54 2.54 96 1015.4
20260504140516 8 270 1.6 4.8 0.43 2.36 2.36 97 1016.0
20260504130516 8 0 1.6 4.8 0.61 1.93 1.93 96 1016.0
20260504110516 8 225 6.4 9.7 0.41 0.64 0.64 93 1015.6
20260504100516 9 180 8.0 16.1 0.20 0.23 0.23 89 1015.7